| time (UTC) | temp F | wind direction | speed MPH | gust MPH | rain 1hr in | rain 24hr in | rain mn in | humidity % | barometer mb |
| 20260507074557 | 62 | 201 | 0.0 | 2.0 | 0.00 | 0.00 | 0.00 | 70 | 1012.5 |
| 20260507073056 | 61 | 208 | 0.0 | 4.0 | 0.00 | 0.00 | 0.00 | 71 | 1012.5 |
| 20260507071610 | 61 | 224 | 2.0 | 4.0 | 0.00 | 0.00 | 0.00 | 71 | 1012.3 |
| 20260507070056 | 60 | 0 | 0.0 | 3.0 | 0.00 | 0.00 | 0.00 | 73 | 1012.1 |
| 20260507064556 | 60 | 188 | 0.0 | 2.0 | 0.00 | 0.00 | 0.00 | 73 | 1012.0 |
| 20260507063057 | 59 | 253 | 0.0 | 3.0 | 0.00 | 0.00 | 0.00 | 75 | 1012.0 |
| 20260507061600 | 59 | 194 | 0.0 | 2.0 | 0.00 | 0.00 | 0.00 | 75 | 1012.0 |
| 20260507060058 | 58 | 0 | 0.0 | 2.0 | 0.00 | 0.00 | 0.00 | 76 | 1011.9 |
| 20260507054602 | 58 | 0 | 0.0 | 1.0 | 0.00 | 0.00 | 0.00 | 78 | 1011.8 |
| 20260507053127 | 58 | 105 | 0.0 | 2.0 | 0.00 | 0.00 | 0.00 | 76 | 1011.7 |
| 20260507051605 | 58 | 221 | 0.0 | 5.0 | 0.00 | 0.00 | 0.00 | 77 | 1011.5 |
| 20260507050104 | 58 | 196 | 1.0 | 5.0 | 0.00 | 0.00 | 0.00 | 77 | 1011.5 |
| 20260507044559 | 58 | 179 | 3.0 | 8.0 | 0.00 | 0.00 | 0.00 | 77 | 1011.3 |
| 20260507043057 | 57 | 181 | 2.0 | 4.0 | 0.00 | 0.00 | 0.00 | 78 | 1011.1 |
| 20260507041558 | 57 | 0 | 0.0 | 0.0 | 0.00 | 0.00 | 0.00 | 79 | 1011.0 |
| 20260507040115 | 57 | 0 | 0.0 | 3.0 | 0.00 | 0.00 | 0.00 | 78 | 1010.9 |
| 20260507034558 | 57 | 208 | 1.0 | 3.0 | 0.00 | 0.00 | 0.00 | 79 | 1010.9 |
| 20260507033100 | 57 | 0 | 1.0 | 3.0 | 0.00 | 0.00 | 0.00 | 79 | 1010.9 |
| 20260507031558 | 58 | 202 | 0.0 | 2.0 | 0.00 | 0.00 | 0.00 | 77 | 1010.9 |
| 20260507030058 | 58 | 196 | 1.0 | 5.0 | 0.00 | 0.00 | 0.00 | 77 | 1011.0 |
| 20260507024604 | 57 | 169 | 0.0 | 2.0 | 0.00 | 0.00 | 0.00 | 78 | 1010.9 |
| 20260507023057 | 58 | 214 | 1.0 | 5.0 | 0.00 | 0.00 | 0.00 | 76 | 1010.8 |
| 20260507021555 | 58 | 193 | 1.0 | 3.0 | 0.00 | 0.00 | 0.00 | 76 | 1010.7 |
| 20260507020058 | 58 | 158 | 0.0 | 4.0 | 0.00 | 0.00 | 0.00 | 77 | 1010.6 |
| 20260507014610 | 58 | 175 | 1.0 | 5.0 | 0.00 | 0.00 | 0.00 | 77 | 1010.8 |
| 20260507013057 | 58 | 264 | 1.0 | 3.0 | 0.00 | 0.00 | 0.00 | 77 | 1010.7 |
| 20260507011604 | 59 | 229 | 1.0 | 4.0 | 0.00 | 0.00 | 0.00 | 76 | 1010.7 |
| 20260507010109 | 59 | 189 | 1.0 | 4.0 | 0.00 | 0.00 | 0.00 | 75 | 1010.6 |
| 20260507004611 | 60 | 200 | 1.0 | 5.0 | 0.00 | 0.00 | 0.00 | 74 | 1010.8 |
| 20260507003102 | 60 | 146 | 2.0 | 6.0 | 0.00 | 0.00 | 0.00 | 73 | 1010.7 |
| 20260507001557 | 60 | 214 | 2.0 | 6.0 | 0.00 | 0.00 | 0.00 | 73 | 1010.7 |
| 20260507000056 | 60 | 192 | 4.0 | 8.0 | 0.00 | 0.00 | 0.00 | 74 | 1010.9 |
| 20260506234559 | 60 | 183 | 1.0 | 5.0 | 0.00 | 0.00 | 0.00 | 74 | 1011.0 |
| 20260506233058 | 60 | 201 | 1.0 | 6.0 | 0.00 | 0.00 | 0.00 | 73 | 1011.0 |
| 20260506231601 | 61 | 195 | 2.0 | 6.0 | 0.00 | 0.00 | 0.00 | 72 | 1010.9 |
| 20260506230059 | 61 | 155 | 3.0 | 8.0 | 0.00 | 0.00 | 0.00 | 71 | 1010.9 |
| 20260506224600 | 61 | 193 | 1.0 | 6.0 | 0.00 | 0.00 | 0.00 | 71 | 1010.8 |
| 20260506223058 | 62 | 0 | 1.0 | 3.0 | 0.00 | 0.00 | 0.00 | 71 | 1010.7 |
| 20260506221559 | 62 | 217 | 0.0 | 6.0 | 0.00 | 0.00 | 0.00 | 70 | 1010.6 |
| 20260506220056 | 62 | 0 | 0.0 | 6.0 | 0.00 | 0.00 | 0.00 | 70 | 1010.4 |
| 20260506214604 | 62 | 233 | 3.0 | 10.0 | 0.00 | 0.00 | 0.00 | 70 | 1010.3 |
| 20260506213059 | 62 | 229 | 2.0 | 6.0 | 0.00 | 0.00 | 0.00 | 69 | 1010.5 |
| 20260506211605 | 62 | 181 | 0.0 | 1.0 | 0.00 | 0.00 | 0.00 | 69 | 1010.2 |
| 20260506210057 | 62 | 0 | 0.0 | 3.0 | 0.00 | 0.00 | 0.00 | 69 | 1010.1 |
| 20260506204556 | 63 | 205 | 2.0 | 6.0 | 0.00 | 0.00 | 0.00 | 68 | 1010.1 |
| 20260506203057 | 63 | 197 | 2.0 | 7.0 | 0.00 | 0.00 | 0.00 | 68 | 1010.0 |
| 20260506201557 | 63 | 192 | 1.0 | 8.0 | 0.00 | 0.00 | 0.00 | 68 | 1009.9 |
| 20260506200106 | 62 | 262 | 1.0 | 5.0 | 0.00 | 0.00 | 0.00 | 68 | 1009.9 |
| 20260506194606 | 62 | 196 | 0.0 | 3.0 | 0.00 | 0.00 | 0.00 | 68 | 1009.9 |
| 20260506193059 | 62 | 0 | 1.0 | 3.0 | 0.00 | 0.00 | 0.00 | 68 | 1009.7 |
| 20260506191608 | 62 | 0 | 0.0 | 2.0 | 0.00 | 0.00 | 0.00 | 68 | 1009.5 |
| 20260506190058 | 63 | 158 | 0.0 | 8.0 | 0.00 | 0.00 | 0.00 | 67 | 1009.2 |
| 20260506184558 | 63 | 201 | 0.0 | 6.0 | 0.00 | 0.00 | 0.00 | 67 | 1009.1 |
| 20260506183120 | 63 | 124 | 2.0 | 6.0 | 0.00 | 0.00 | 0.00 | 66 | 1008.9 |
| 20260506181602 | 63 | 0 | 0.0 | 4.0 | 0.00 | 0.00 | 0.00 | 67 | 1008.8 |
| 20260506180114 | 64 | 221 | 3.0 | 8.0 | 0.00 | 0.00 | 0.00 | 66 | 1008.8 |
| 20260506174556 | 65 | 217 | 1.0 | 7.0 | 0.00 | 0.00 | 0.00 | 65 | 1008.6 |
| 20260506173131 | 65 | 263 | 2.0 | 7.0 | 0.00 | 0.00 | 0.00 | 65 | 1008.6 |
| 20260506171557 | 66 | 219 | 1.0 | 3.0 | 0.00 | 0.00 | 0.00 | 64 | 1008.6 |
| 20260506170058 | 66 | 174 | 1.0 | 8.0 | 0.00 | 0.00 | 0.00 | 64 | 1008.5 |
| 20260506164601 | 66 | 172 | 2.0 | 14.0 | 0.00 | 0.00 | 0.00 | 64 | 1008.6 |
| 20260506163103 | 66 | 126 | 2.0 | 7.0 | 0.00 | 0.00 | 0.00 | 64 | 1008.9 |
| 20260506161559 | 67 | 187 | 5.0 | 15.0 | 0.00 | 0.00 | 0.00 | 63 | 1009.0 |
| 20260506160056 | 68 | 227 | 4.0 | 12.0 | 0.00 | 0.00 | 0.00 | 61 | 1009.4 |
| 20260506154559 | 69 | 182 | 4.0 | 10.0 | 0.00 | 0.00 | 0.00 | 60 | 1009.2 |
| 20260506153058 | 68 | 192 | 4.0 | 12.0 | 0.00 | 0.00 | 0.00 | 62 | 1009.4 |
| 20260506151558 | 68 | 0 | 1.0 | 10.0 | 0.00 | 0.00 | 0.00 | 62 | 1009.4 |
| 20260506150100 | 69 | 218 | 4.0 | 12.0 | 0.00 | 0.00 | 0.00 | 60 | 1009.5 |
| 20260506144607 | 70 | 192 | 7.0 | 13.0 | 0.00 | 0.00 | 0.00 | 58 | 1009.5 |
| 20260506143057 | 70 | 214 | 8.0 | 15.0 | 0.00 | 0.00 | 0.00 | 58 | 1009.6 |
| 20260506141556 | 71 | 231 | 4.0 | 15.0 | 0.00 | 0.00 | 0.00 | 57 | 1009.6 |
| 20260506140058 | 70 | 175 | 5.0 | 18.0 | 0.00 | 0.00 | 0.00 | 57 | 1009.5 |
| 20260506134604 | 70 | 139 | 2.0 | 13.0 | 0.00 | 0.00 | 0.00 | 57 | 1009.8 |
| 20260506133101 | 71 | 217 | 4.0 | 12.0 | 0.00 | 0.00 | 0.00 | 56 | 1009.7 |
| 20260506131557 | 72 | 205 | 7.0 | 15.0 | 0.00 | 0.00 | 0.00 | 53 | 1009.6 |
| 20260506130059 | 72 | 215 | 5.0 | 14.0 | 0.00 | 0.00 | 0.00 | 55 | 1009.8 |
| 20260506124557 | 72 | 192 | 5.0 | 12.0 | 0.00 | 0.00 | 0.00 | 53 | 1009.7 |
| 20260506123056 | 72 | 117 | 2.0 | 16.0 | 0.00 | 0.00 | 0.00 | 54 | 1009.7 |
| 20260506121558 | 72 | 135 | 3.0 | 10.0 | 0.00 | 0.00 | 0.00 | 54 | 1009.9 |
| 20260506120058 | 71 | 163 | 4.0 | 15.0 | 0.00 | 0.00 | 0.00 | 54 | 1009.7 |
| 20260506114557 | 71 | 131 | 5.0 | 12.0 | 0.00 | 0.00 | 0.00 | 55 | 1009.7 |
| 20260506113100 | 72 | 134 | 3.0 | 13.0 | 0.00 | 0.00 | 0.00 | 53 | 1010.0 |
| 20260506111559 | 72 | 166 | 4.0 | 11.0 | 0.00 | 0.00 | 0.00 | 54 | 1010.2 |
| 20260506110058 | 70 | 207 | 3.0 | 18.0 | 0.00 | 0.00 | 0.00 | 58 | 1010.4 |
| 20260506104601 | 69 | 218 | 4.0 | 9.0 | 0.00 | 0.00 | 0.00 | 58 | 1010.7 |
| 20260506103056 | 69 | 264 | 3.0 | 11.0 | 0.00 | 0.00 | 0.00 | 59 | 1010.7 |
| 20260506101556 | 68 | 200 | 3.0 | 9.0 | 0.00 | 0.00 | 0.00 | 59 | 1010.9 |
| 20260506100104 | 68 | 145 | 5.0 | 16.0 | 0.00 | 0.00 | 0.00 | 59 | 1010.9 |
| 20260506094613 | 68 | 241 | 6.0 | 13.0 | 0.00 | 0.00 | 0.00 | 59 | 1011.0 |
| 20260506093058 | 69 | 257 | 4.0 | 10.0 | 0.00 | 0.00 | 0.00 | 57 | 1010.9 |
| 20260506091558 | 70 | 212 | 4.0 | 14.0 | 0.00 | 0.00 | 0.00 | 56 | 1010.8 |
| 20260506090100 | 72 | 176 | 3.0 | 11.0 | 0.00 | 0.00 | 0.00 | 55 | 1010.6 |
| 20260506084601 | 71 | 162 | 2.0 | 10.0 | 0.00 | 0.00 | 0.00 | 53 | 1010.6 |
| 20260506083103 | 71 | 184 | 6.0 | 15.0 | 0.00 | 0.00 | 0.00 | 51 | 1010.6 |
| 20260506081556 | 71 | 152 | 5.0 | 12.0 | 0.00 | 0.00 | 0.00 | 53 | 1010.5 |
| 20260506080108 | 70 | 181 | 5.0 | 12.0 | 0.00 | 0.00 | 0.00 | 55 | 1010.6 |